Location: Unspecified
(0.0000°N, 0.0000°E)
Time: 06:37:13
(UTC+00:00)

S-56A Canister/Altair - Pass Details

Date: 26 May 2024
Orbit: 637 x 2489 km, 38.9° (Epoch: 21 June)

Event Time Altitude Azimuth Distance (km) Brightness Sun altitude
Rises 04:44:02 0° 270° (W) 6,145 - -17.0°
Exits shadow 04:48:42 - 282° (WNW) 5,360 11.3 -15.9°
Reaches altitude 10° 04:50:14 10° 287° (WNW) 5,129 11.3 -15.6°
Maximum altitude 04:58:55 18° 324° (NW) 4,302 11.2 -13.5°
Drops below altitude 10° 05:06:50 10° 2° (N) 4,563 11.8 -11.7°
Sets 05:11:56 0° 20° (NNE) 5,237 12.5 -10.5°
